Starlink 3114

operational
NORAD ID: 49426 Int'l Des: 2021-104 Owner: SPXS Country: US Constellation: starlink
LEOCIRCULAR

Über Starlink 3114

Beschreibung wird geladen...

Live-Position

3D-Globus wird geladen...

Nächste Überflüge

Höhenverlauf

Altitude vs Time

uPlot chart will show altitude changes over time

Zweizeiliger Elementsatz

1 49426U 21104U 26034.37013242 -.00000239 00000-0 30812-5 0 9994
2 49426 53.2190 23.1881 0001420 92.9633 267.1522 15.08839891233442
Epoch: 3. Feb. 2026 • Age: 19 hours

Aktueller Status

Höhe 554.9 km
Geschwindigkeit 7.58 km/s
Subsatellitenpunkt -42.60°S, 146.61°E
Startdatum 13. Nov. 2021
Alter 4.2 years
Typ internet

Technische Details

Klassifizierung Payload
Masse 290.00 kg
Trockenmasse 270.00 kg
Gesamtmasse 290.00 kg
Länge 0.20 m
Durchmesser 2.80 m
Spannweite 9.00 m
Form Box + pan
Hersteller SPXS
Bus-Typ Starlink
Phasenstatus In Orbit
Besitzer/Staat SPXS/US

Große Konstellationen

Loading constellations...